[TLELIST] Archives

 

[list_settings.list_name] Current TLEs

January 15th 2009 PDT

HST 1 20580U 90037B 09013.40591761 .00000271 00000-0 80505-5 0 3043 2 20580 028.4707 032.0598 0003645 100.3390 259.7609 15.00446222826589 ISS (ZARYA) 1 25544U 98067A 09013.51803885 .00010885 00000-0 85177-4 0 615 2 25544 051.6431 018.6302 0006600 189.7471 313.9421 15.72207023581625 CXO 1 25867U 99040B 09013.12500000 .00000038 00000-0 10000-3 0 2832 2 25867 064.7413 074.3574 7230519 276.8729 358.9060 00.37806719 4425 ____________________________________________________________________ These 2-Line ...Continue Reading

[list_settings.list_name] Current TLEs

January 14th 2009 PDT

HST 1 20580U 90037B 09012.20862878 .00000287 00000-0 93588-5 0 3031 2 20580 028.4699 039.8730 0003468 087.3861 272.7128 15.00446074826409 ISS (ZARYA) 1 25544U 98067A 09013.19180883 .00010797 00000-0 84553-4 0 580 2 25544 051.6424 020.3000 0006517 189.1408 266.8625 15.72199019581574 CXO 1 25867U 99040B 09013.12500000 .00000038 00000-0 10000-3 0 2832 2 25867 064.7413 074.3574 7230519 276.8729 358.9060 00.37806719 4425 ____________________________________________________________________ These 2-Line ...Continue Reading

[list_settings.list_name] Current TLEs

January 13th 2009 PDT

HST 1 20580U 90037B 09012.20862878 .00000287 00000-0 93588-5 0 3031 2 20580 028.4699 039.8730 0003468 087.3861 272.7128 15.00446074826409 ISS (ZARYA) 1 25544U 98067A 09011.85056079 .00010407 00000-0 81779-4 0 495 2 25544 051.6431 027.1693 0006592 183.9969 235.6151 15.72167165581364 CXO 1 25867U 99040B 09013.12500000 .00000038 00000-0 10000-3 0 2832 2 25867 064.7413 074.3574 7230519 276.8729 358.9060 00.37806719 4425 ____________________________________________________________________ These 2-Line ...Continue Reading

[list_settings.list_name] Current TLEs

January 12th 2009 PDT

HST 1 20580U 90037B 09010.47921057 .00000264 00000-0 75122-5 0 3021 2 20580 028.4698 051.1533 0003435 068.4096 291.6857 15.00445478826147 ISS (ZARYA) 1 25544U 98067A 09010.52935259 .00010461 00000-0 82276-4 0 419 2 25544 051.6432 033.9355 0006655 179.0341 317.8373 15.72138300581150 CXO 1 25867U 99040B 09007.83333333 +.00000122 +00000-0 +10000-3 0 02829 2 25867 064.7295 074.5474 7216117 276.9709 358.3716 00.37798958004406 ____________________________________________________________________ These 2-Line ...Continue Reading

[list_settings.list_name] Current TLEs

January 11th 2009 PDT

HST 1 20580U 90037B 09009.21540353 .00000309 00000-0 11050-4 0 3015 2 20580 028.4698 059.3958 0003411 054.9848 305.1067 15.00445553825953 ISS (ZARYA) 1 25544U 98067A 09009.86870370 .00010577 00000-0 83186-4 0 369 2 25544 051.6433 037.3179 0006648 177.6896 177.6109 15.72124150581049 CXO 1 25867U 99040B 09007.83333333 +.00000122 +00000-0 +10000-3 0 02829 2 25867 064.7295 074.5474 7216117 276.9709 358.3716 00.37798958004406 ____________________________________________________________________ These 2-Line ...Continue Reading

[list_settings.list_name] Current TLEs

January 10th 2009 PDT

HST 1 20580U 90037B 09009.21540353 .00000309 00000-0 11050-4 0 3015 2 20580 028.4698 059.3958 0003411 054.9848 305.1067 15.00445553825953 ISS (ZARYA) 1 25544U 98067A 09006.87881944 +.00012711 +00000-0 +99260-4 0 00155 2 25544 051.6428 052.6262 0007025 167.1222 175.4681 15.72061961580571 CXO 1 25867U 99040B 09007.83333333 +.00000122 +00000-0 +10000-3 0 02829 2 25867 064.7295 074.5474 7216117 276.9709 358.3716 00.37798958004406 ____________________________________________________________________ These 2-Line ...Continue Reading

[list_settings.list_name] Current TLEs

January 9th 2009 PDT

HST 1 20580U 90037B 09007.48598301 .00000313 00000-0 11367-4 0 3003 2 20580 028.4697 070.6737 0003397 036.5235 323.5586 15.00445053825698 ISS (ZARYA) 1 25544U 98067A 09007.54633644 .00012083 00000-0 94537-4 0 202 2 25544 051.6427 049.2084 0006908 169.1997 353.6981 15.72076085580682 CXO 1 25867U 99040B 09005.20833333 +.00000266 +00000-0 +10000-3 0 02811 2 25867 064.7098 074.6722 7215150 276.9750 001.0199 00.37808922004394 ____________________________________________________________________ These 2-Line ...Continue Reading

[list_settings.list_name] Current TLEs

January 8th 2009 PDT

HST 1 20580U 90037B 09006.22217519 .00000330 00000-0 12713-4 0 2995 2 20580 028.4695 078.9162 0003402 022.5106 337.5637 15.00444770825505 ISS (ZARYA) 1 25544U 98067A 09006.52567200 .00012730 00000-0 99439-4 0 130 2 25544 051.6428 054.4350 0007000 165.8125 336.8270 15.72052661580528 CXO 1 25867U 99040B 09005.20833333 +.00000266 +00000-0 +10000-3 0 02811 2 25867 064.7098 074.6722 7215150 276.9750 001.0199 00.37808922004394 ____________________________________________________________________ These 2-Line ...Continue Reading

[list_settings.list_name] Current TLEs

January 7th 2009 PDT

HST 1 20580U 90037B 09006.22217519 .00000330 00000-0 12713-4 0 2995 2 20580 028.4695 078.9162 0003402 022.5106 337.5637 15.00444770825505 ISS (ZARYA) 1 25544U 98067A 09006.19502380 .00012774 00000-0 99801-4 0 97 2 25544 051.6424 056.1274 0006956 164.2892 265.8311 15.72044230580475 CXO 1 25867U 99040B 08352.78682399 .00000000 00000-0 10000-3 0 2762 2 25867 064.6326 075.2428 7176269 277.0774 013.2252 00.37815303 4321 ____________________________________________________________________ These 2-Line ...Continue Reading

[list_settings.list_name] Current TLEs

January 6th 2009 PDT

HST 1 20580U 90037B 09004.62578567 .00000308 00000-0 10987-4 0 2985 2 20580 028.4694 089.3263 0003408 004.2084 355.8534 15.00444065825269 ISS (ZARYA) 1 25544U 98067A 09004.55778390 .00012845 00000-0 10050-3 0 9985 2 25544 051.6424 064.5090 0007182 159.5699 358.7157 15.72000542580218 CXO 1 25867U 99040B 08352.78682399 .00000000 00000-0 10000-3 0 2762 2 25867 064.6326 075.2428 7176269 277.0774 013.2252 00.37815303 4321 ____________________________________________________________________ These 2-Line ...Continue Reading
  • This mailing list is a public mailing list - anyone may join or leave, at any time.
  • This mailing list is announce-only.

International Space Station (ISS) / Hubble Space Telescope (HST) / Chandra X-Ray Observatory Orbital Data via EMAIL

Privacy Policy:

Private list